TimeCST,TemperatureF,Dew PointF,Humidity,Sea Level PressureIn,VisibilityMPH,Wind Direction,Wind SpeedMPH,Gust SpeedMPH,PrecipitationIn,Events,Conditions,WindDirDegrees,DateUTC
12:53 AM,16.0,7.0,68,30.31,10.0,NNW,5.8,-,N/A,,Clear,330,2013-11-27 06:53:00
1:53 AM,15.1,7.0,70,30.32,10.0,NNW,9.2,-,N/A,,Clear,330,2013-11-27 07:53:00
2:53 AM,14.0,7.0,74,30.32,10.0,NNW,9.2,-,N/A,,Clear,330,2013-11-27 08:53:00
3:53 AM,14.0,6.1,71,30.33,10.0,NNW,8.1,-,N/A,,Clear,340,2013-11-27 09:53:00
4:53 AM,12.9,6.1,74,30.35,10.0,NNW,6.9,-,N/A,,Clear,330,2013-11-27 10:53:00
5:53 AM,12.0,6.1,77,30.36,10.0,NNW,6.9,-,N/A,,Clear,330,2013-11-27 11:53:00
6:53 AM,12.0,5.0,73,30.37,10.0,NNW,6.9,-,N/A,,Clear,340,2013-11-27 12:53:00
7:53 AM,12.9,6.1,74,30.39,10.0,NNW,8.1,-,N/A,,Clear,330,2013-11-27 13:53:00
8:53 AM,17.1,6.1,62,30.39,10.0,NNW,11.5,-,N/A,,Clear,340,2013-11-27 14:53:00
9:53 AM,21.0,7.0,55,30.39,10.0,North,8.1,-,N/A,,Clear,360,2013-11-27 15:53:00
10:53 AM,23.0,8.1,53,30.37,10.0,NNW,8.1,-,N/A,,Clear,340,2013-11-27 16:53:00
11:53 AM,24.1,7.0,48,30.36,10.0,Variable,5.8,-,N/A,,Clear,0,2013-11-27 17:53:00
12:53 PM,25.0,6.1,45,30.33,10.0,Variable,6.9,-,N/A,,Clear,0,2013-11-27 18:53:00
1:53 PM,27.0,7.0,43,30.32,10.0,West,6.9,-,N/A,,Clear,280,2013-11-27 19:53:00
2:53 PM,27.0,6.1,41,30.30,10.0,WNW,6.9,-,N/A,,Clear,300,2013-11-27 20:53:00
3:53 PM,27.0,6.1,41,30.30,7.0,West,6.9,-,N/A,,Clear,260,2013-11-27 21:53:00
4:53 PM,23.0,7.0,50,30.29,10.0,SW,5.8,-,N/A,,Clear,230,2013-11-27 22:53:00
5:53 PM,21.0,9.0,60,30.29,7.0,Calm,Calm,-,N/A,,Clear,0,2013-11-27 23:53:00
6:53 PM,19.9,8.1,60,30.28,8.0,South,4.6,-,N/A,,Clear,190,2013-11-28 00:53:00
7:53 PM,19.9,9.0,62,30.27,10.0,South,3.5,-,N/A,,Clear,190,2013-11-28 01:53:00
8:53 PM,19.0,10.0,68,30.26,10.0,South,5.8,-,N/A,,Clear,180,2013-11-28 02:53:00
9:53 PM,23.0,10.0,58,30.23,10.0,South,10.4,20.7,N/A,,Clear,190,2013-11-28 03:53:00
10:53 PM,21.0,10.0,63,30.26,10.0,South,3.5,-,N/A,,Clear,180,2013-11-28 04:53:00
11:53 PM,21.9,12.0,66,30.25,10.0,SSE,5.8,-,N/A,,Partly Cloudy,160,2013-11-28 05:53:00